Regional Weather Roundup
Issued by NWS Sterling, VA

Home | Current Version | Previous Version | Graphics & Text | Print | Product List | Glossary On
Versions: 1 2 3 4 5 6 7 8 9 10 11 12 13 14 15 16 17 18 19 20 21 22 23 24 25 26 27 28 29 30 31 32 33 34 35 36 37 38 39 40 41 42 43 44 45 46 47 48 49 50
390
ASUS41 KLWX 191710
RWRLWX

REGIONAL WEATHER ROUNDUP
NATIONAL WEATHER SERVICE BALTIMORE MD/WASHINGTON DC
1200 PM EST SUN FEB 19 2017

Note: "FAIR" indicates few or no clouds below 12,000 feet
with no significant weather and/or obstructions to visibility.
 TC=TEMPERATURE CELSIUS

 * =Non NWS site. Station does not report precipitation (e.g. rain,
    snow, etc.), thunder, or fog.

DCZ001-MDZ009-015-VAZ040>042-051-053>054-191800-
WASHINGTON METRO

CITY           SKY/WX    TMP DP  RH WIND       PRES   REMARKS
WASHINGTON NAT MOSUNNY   68  45  43 NW14      29.93S
DULLES         MOSUNNY   64  43  46 NW13      29.94R
ANDREWS AFB    SUNNY     65  44  45 W13       29.90F
FT BELVOIR     MOSUNNY   66  44  45 NW14      29.93S
QUANTICO       SUNNY     68  46  45 NE7       29.94S
COLLEGE PARK*  SUNNY     64  43  45 NW8G20    29.91S
LEESBURG*      SUNNY     64  48  55 NW12G20   29.94F
MANASSAS*      SUNNY     64  45  48 MISG      29.94S
GAITHERSBURG*  SUNNY     64  43  45 NW13      29.96F

$$

MDZ006>007-011-014-191800-
BALTIMORE METRO

CITY           SKY/WX    TMP DP  RH WIND       PRES   REMARKS
BWI AIRPORT    MOSUNNY   68  44  42 W15       29.89S
MD SCIENCE CTR   N/A     67  40  37 MISG      29.90S
MARTIN STATE   MOSUNNY   68  46  45 W13       29.90S
ANNAPOLIS      SUNNY     61  43  51 NW10      29.89F
FORT MEADE*    MOSUNNY   68  41  37 W12       29.93F

$$

MDZ012-015-019>023-191800-
MARYLAND EASTERN SHORE

CITY           SKY/WX    TMP DP  RH WIND       PRES   REMARKS
OCEAN CITY     CLOUDY    67  42  40 N10       29.88F
SALISBURY      CLOUDY    63  43  48 NW7       29.89S
BAY BRIDGE AP* SUNNY     63  45  51 NW7       29.90S
CAMBRIDGE*     SUNNY     61  43  51 NW9       29.89S

$$

MDZ017>025-191800-
SOUTHERN MARYLAND

CITY           SKY/WX    TMP DP  RH WIND       PRES   REMARKS
PATUXENT RIVER PTSUNNY   65  47  52 NW12      29.90F
ST INIGOES     CLOUDY    62  45  53 SW8       29.90S
LEONARDTOWN*   MOSUNNY   66  43  42 W7        29.92S

$$

MDZ003>005-191800-
NORTH CENTRAL MARYLAND

CITY           SKY/WX    TMP DP  RH WIND       PRES   REMARKS
FREDERICK*     SUNNY     64  46  52 W14G21    29.95S
HAGERSTOWN APT SUNNY     64  43  46 W16G24    29.92F
WESTMINSTER*   SUNNY     63  45  51 W14G23    29.91S

$$

MDZ501>502-191800-
WESTERN MARYLAND

CITY           SKY/WX    TMP DP  RH WIND       PRES   REMARKS
OAKLAND*       FOG       41  41 100 SW5       30.00S VSB<1/4
CUMBERLAND*    CLOUDY    59  43  55 SW8       30.02F

$$

VAZ025>031-191800-
SHENANDOAH VALLEY

CITY           SKY/WX    TMP DP  RH WIND       PRES   REMARKS
WINCHESTER*    MOSUNNY   59  43  55 NW12      29.96R
FRONT ROYAL*   SUNNY     63  45  51 W7        29.95R
LURAY*         SUNNY     64  46  52 W6        29.96S
NEW MARKET*    SUNNY     63  41  44 W6        29.96S
STAUNTON*      SUNNY     62  43  50 NE5       29.98S
WAYNESBORO*    SUNNY     62  41  45 NW8       29.98S

$$

WVZ021-048>050-054>055-191800-
EASTERN WEST VIRGINIA PANHANDLE

CITY           SKY/WX    TMP DP  RH WIND       PRES   REMARKS
MARTINSBURG    SUNNY     63  42  46 NW16      29.94F
PETERSBURG*    PTSUNNY   60  45  59 W12       30.01S

$$

VAZ036>039-050-191800-
CENTRAL FOOTHILLS

CITY           SKY/WX    TMP DP  RH WIND       PRES   REMARKS
CHARLOTTESVILL SUNNY     69  43  38 VRB7      29.94R
CULPEPER*      SUNNY     69  47  45 N7        29.95R
ORANGE*        SUNNY     68  45  42 CALM      29.95S
GORDONSVILLE*  SUNNY     68  44  42 CALM      29.94R
WARRENTON*     MOSUNNY   69  40  34 N13G18    29.93S

$$

VAZ055>057-191800-
NORTH AND CENTRAL PIEDMONT

CITY           SKY/WX    TMP DP  RH WIND       PRES   REMARKS
FREDERICKSBRG* SUNNY     68  47  47 NW7       29.92S
STAFFORD*      SUNNY     67  45  44 N14       29.97S

$$

NCZ024-NYZ072-PAZ021-071-VAZ022-071-191800-
OTHER REGIONAL OBSERVATIONS

CITY           SKY/WX    TMP DP  RH WIND       PRES   REMARKS
NEW YORK CITY  CLOUDY    61  34  36 NW8       29.83S
PHILADELPHIA   MOSUNNY   66  39  37 NW8G18    29.86F
PITTSBURGH     MOSUNNY   56  44  64 SW8       29.98S
ROANOKE        MOSUNNY   61  43  51 W9G17     30.05S
RICHMOND       MOSUNNY   70  47  43 NW10      29.92F
RALEIGH        SUNNY     67  41  38 NW8       29.98S

$$

ANZ530>537-191800-
MARINE OBSERVATIONS

STATION/POSITION TIME  TEMP    WIND        PRES
                       AIR SEA DIR/SP/G
                 (UTC) (F)     (DEG/KT/KT) (MB)
THOMAS PT LIGHT  1700   62 40  300/ 11/ 12   N/A
BALT KEY BRIDGE  1648   63     320/  9/ 11 1012.2F
COVE POINT       1648   53      30/  7/  8 1013.3R
LEWISETTA        1648   63 43  340/  7/  8 1012.6S
SOLOMONS ISLAND  1648   63 42  310/  7/  9   N/A
PINEY POINT      1648          310/ 14/ 15   N/A

$$





USA.gov is the U.S. government's official web portal to all federal, state and local government web resources and services.